FW8563 Weather Reports


Display with metric or nautical units.
time (UTC)temp
F
wind
direction
speed
MPH
gust
MPH
rain 1hr
in
rain 24hr
in
rain mn
in
humidity
%
barometer
mb
20260507160315 69 213 0.0 2.0 0.00 0.17 0.15 58 1014.7
20260507155813 69 254 1.0 5.0 0.00 0.17 0.15 58 1014.5
20260507155313 68 215 1.0 5.0 0.00 0.17 0.15 59 1014.6
20260507154814 68 225 1.0 5.0 0.00 0.17 0.15 60 1014.7
20260507153817 68 224 2.0 6.0 0.00 0.17 0.15 59 1014.7
20260507153314 68 229 2.0 6.0 0.00 0.17 0.15 60 1014.7
20260507152813 68 206 2.0 6.0 0.00 0.17 0.15 60 1014.8
20260507152310 68 222 2.0 5.0 0.00 0.17 0.15 60 1014.8
20260507151805 68 153 2.0 5.0 0.00 0.17 0.15 59 1014.8
20260507151300 68 212 2.0 5.0 0.00 0.17 0.15 59 1014.8
20260507150756 68 143 2.0 6.0 0.00 0.17 0.15 60 1014.9
20260507150253 68 214 2.0 6.0 0.00 0.17 0.15 59 1014.8
20260507145753 69 147 1.0 5.0 0.00 0.17 0.15 59 1014.9
20260507145252 68 75 1.0 6.0 0.00 0.17 0.15 59 1014.9
20260507144751 69 160 2.0 6.0 0.00 0.17 0.15 60 1014.9
20260507143752 68 219 1.0 5.0 0.00 0.17 0.15 62 1014.9
20260507143249 67 159 2.0 6.0 0.00 0.17 0.15 62 1015.0
20260507142751 67 146 2.0 6.0 0.00 0.17 0.15 61 1015.1
20260507142250 67 82 2.0 6.0 0.00 0.17 0.15 63 1015.1
20260507141749 67 109 2.0 6.0 0.00 0.17 0.15 63 1015.1
20260507140748 67 212 2.0 6.0 0.00 0.17 0.15 65 1015.1
20260507140246 67 155 2.0 8.0 0.00 0.17 0.15 64 1015.3
20260507135743 67 242 2.0 8.0 0.00 0.17 0.15 65 1015.3
20260507135242 67 216 2.0 8.0 0.00 0.17 0.15 65 1015.4
20260507134744 67 135 3.0 9.0 0.00 0.17 0.15 66 1015.4
20260507134242 67 250 2.0 9.0 0.00 0.17 0.15 69 1015.5
20260507133743 67 189 2.0 5.0 0.00 0.17 0.15 66 1015.6
20260507133243 67 142 2.0 6.0 0.00 0.17 0.15 66 1015.8
20260507132741 67 190 2.0 6.0 0.00 0.17 0.15 67 1015.8
20260507132242 66 147 2.0 9.0 0.00 0.18 0.15 69 1015.8
20260507131743 66 105 3.0 9.0 0.00 0.18 0.15 68 1015.8
20260507131244 66 115 4.0 8.0 0.00 0.18 0.15 68 1015.9
20260507130741 66 150 3.0 8.0 0.00 0.18 0.15 67 1016.0
20260507130241 65 139 3.0 9.0 0.00 0.18 0.15 69 1016.1
20260507125741 66 158 3.0 9.0 0.00 0.18 0.15 66 1016.2
20260507125240 66 148 2.0 7.0 0.00 0.18 0.15 68 1016.2
20260507124734 66 186 2.0 7.0 0.00 0.18 0.15 69 1016.2
20260507124228 65 137 2.0 7.0 0.00 0.18 0.15 68 1016.1
20260507123725 65 203 3.0 7.0 0.00 0.18 0.15 69 1016.2
20260507123223 65 101 2.0 7.0 0.00 0.18 0.15 67 1016.1
20260507122725 65 239 2.0 7.0 0.00 0.18 0.15 68 1016.1
20260507121722 65 132 3.0 10.0 0.00 0.18 0.15 67 1016.0
20260507121222 65 132 3.0 10.0 0.00 0.18 0.15 67 1016.0
20260507120721 65 122 2.0 7.0 0.00 0.18 0.15 66 1016.0
20260507120219 65 217 2.0 7.0 0.00 0.18 0.15 67 1016.0
20260507115718 65 113 2.0 7.0 0.00 0.18 0.15 66 1016.0
20260507115220 66 158 2.0 6.0 0.00 0.18 0.15 66 1016.0
20260507114719 66 147 2.0 10.0 0.00 0.18 0.15 68 1016.1
20260507113719 66 119 3.0 9.0 0.00 0.18 0.15 66 1016.0
20260507113219 67 210 2.0 9.0 0.00 0.18 0.15 66 1016.1
20260507112715 66 71 2.0 8.0 0.00 0.18 0.15 65 1016.1
20260507112217 65 170 2.0 7.0 0.00 0.18 0.15 66 1016.2
20260507111716 65 146 2.0 7.0 0.00 0.18 0.15 63 1016.4
20260507111216 65 220 2.0 7.0 0.00 0.18 0.15 68 1016.2
20260507110714 65 145 2.0 7.0 0.00 0.18 0.15 69 1016.4
20260507110212 64 268 2.0 6.0 0.00 0.18 0.15 72 1016.2
20260507105710 64 191 3.0 7.0 0.00 0.18 0.15 73 1016.2
20260507105211 64 145 3.0 7.0 0.00 0.18 0.15 73 1016.5
20260507104711 64 202 3.0 6.0 0.00 0.18 0.15 73 1016.4
20260507104208 64 184 2.0 6.0 0.00 0.18 0.15 73 1016.5
20260507103709 63 231 2.0 6.0 0.00 0.18 0.15 74 1016.4
20260507102206 62 128 2.0 8.0 0.00 0.18 0.15 78 1016.5
20260507101701 62 212 2.0 6.0 0.00 0.18 0.15 83 1016.5
20260507101203 62 120 2.0 6.0 0.00 0.18 0.15 86 1016.6
20260507100700 61 181 2.0 8.0 0.00 0.18 0.15 89 1016.6
20260507095704 60 243 1.0 7.0 0.00 0.18 0.15 94 1016.6
20260507095201 59 208 1.0 5.0 0.00 0.18 0.15 97 1016.6
20260507094701 59 213 2.0 5.0 0.00 0.18 0.15 98 1016.6
20260507092201 57 193 2.0 7.0 0.01 0.18 0.15 98 1016.7
20260507091700 57 145 1.0 5.0 0.01 0.18 0.15 98 1016.6
20260507091155 57 141 2.0 5.0 0.01 0.18 0.15 98 1016.6
20260507090655 56 154 2.0 6.0 0.01 0.18 0.15 98 1016.7
20260507090200 56 135 1.0 6.0 0.01 0.18 0.15 98 1016.7
20260507085655 56 115 1.0 5.0 0.01 0.18 0.15 98 1016.7
20260507085156 56 154 1.0 5.0 0.01 0.18 0.15 98 1016.7
20260507084157 56 207 1.0 5.0 0.01 0.18 0.15 98 1016.6
20260507083707 56 136 1.0 5.0 0.01 0.18 0.15 98 1016.7
20260507083155 56 184 1.0 5.0 0.01 0.18 0.15 99 1016.7
20260507082655 56 106 1.0 5.0 0.01 0.18 0.15 99 1016.7
20260507082157 56 122 1.0 5.0 0.00 0.17 0.14 99 1016.7
20260507081155 56 150 2.0 5.0 0.00 0.17 0.14 99 1016.6
20260507075657 56 137 1.0 3.0 0.00 0.17 0.14 99 1016.7
20260507075155 55 168 1.0 3.0 0.00 0.17 0.14 99 1016.7
20260507074654 55 143 0.0 3.0 0.00 0.17 0.14 99 1016.7
20260507074157 55 123 0.0 2.0 0.00 0.17 0.14 99 1016.6
20260507073155 55 152 1.0 4.0 0.00 0.17 0.14 99 1016.5
20260507072654 54 164 1.0 4.0 0.00 0.17 0.14 99 1016.6
20260507072155 54 223 1.0 4.0 0.00 0.17 0.14 99 1016.6
20260507071147 55 209 0.0 1.0 0.00 0.17 0.14 99 1016.6
20260507070642 54 143 0.0 1.0 0.00 0.17 0.14 99 1016.4
20260507070138 54 150 0.0 2.0 0.00 0.17 0.14 99 1016.5
20260507065638 54 229 1.0 2.0 0.00 0.17 0.14 99 1016.4
20260507065141 54 128 1.0 4.0 0.00 0.17 0.14 99 1016.2
20260507064636 54 126 0.0 4.0 0.00 0.17 0.14 99 1016.2
20260507064134 54 131 1.0 2.0 0.00 0.17 0.14 99 1016.1
20260507063633 54 209 0.0 2.0 0.00 0.17 0.14 99 1016.2
20260507063133 54 165 0.0 2.0 0.00 0.17 0.14 99 1016.1
20260507062631 54 140 1.0 5.0 0.00 0.17 0.14 99 1016.1
20260507062133 54 219 1.0 5.0 0.00 0.17 0.14 99 1016.1
20260507061630 54 226 0.0 4.0 0.00 0.17 0.14 99 1016.0
20260507061130 54 151 0.0 2.0 0.00 0.17 0.14 99 1015.9
20260507060631 54 220 0.0 2.0 0.00 0.17 0.14 99 1015.9
20260507060130 54 150 0.0 1.0 0.00 0.17 0.14 99 1016.0
20260507055631 54 114 0.0 2.0 0.00 0.17 0.14 99 1015.9
20260507055130 54 148 0.0 2.0 0.00 0.17 0.14 99 1015.9
20260507054130 53 212 0.0 2.0 0.00 0.17 0.14 99 1016.0
20260507053629 53 217 0.0 2.0 0.00 0.17 0.14 99 1016.0
20260507053130 53 200 0.0 2.0 0.00 0.18 0.14 99 1015.9
20260507052629 53 208 0.0 2.0 0.00 0.18 0.14 99 1015.9
20260507052126 53 198 0.0 1.0 0.00 0.18 0.14 99 1015.8
20260507051625 53 214 0.0 1.0 0.00 0.19 0.14 99 1015.8
20260507050622 53 134 0.0 2.0 0.00 0.20 0.14 99 1015.8
20260507050122 53 200 0.0 4.0 0.00 0.20 0.14 99 1015.7
20260507045623 53 227 1.0 4.0 0.00 0.20 0.14 99 1015.8
20260507045119 53 203 0.0 3.0 0.00 0.20 0.14 99 1015.8
20260507044620 53 218 0.0 3.0 0.00 0.20 0.14 99 1015.6
20260507044119 53 233 1.0 3.0 0.00 0.20 0.14 99 1015.5
20260507043619 53 212 1.0 4.0 0.00 0.20 0.14 99 1015.5
20260507043121 53 226 1.0 4.0 0.00 0.20 0.14 99 1015.4
20260507042617 53 226 1.0 4.0 0.00 0.20 0.14 99 1015.4
20260507042114 53 223 0.0 4.0 0.00 0.20 0.14 99 1015.4
20260507041617 53 226 0.0 3.0 0.00 0.20 0.14 99 1015.4
20260507041117 53 174 1.0 4.0 0.00 0.20 0.14 99 1015.4
20260507040616 53 212 1.0 4.0 0.00 0.20 0.14 99 1015.3
20260507040118 53 223 1.0 3.0 0.00 0.20 0.14 99 1015.4
20260507035617 53 207 1.0 5.0 0.00 0.20 0.14 99 1015.3
20260507035116 53 199 1.0 5.0 0.00 0.21 0.14 99 1015.3
20260507034615 53 181 1.0 5.0 0.00 0.21 0.14 98 1015.2
20260507034114 53 148 1.0 6.0 0.00 0.21 0.14 99 1015.3
20260507033113 53 149 1.0 6.0 0.00 0.21 0.14 99 1015.2
20260507032614 53 231 2.0 5.0 0.00 0.21 0.14 99 1015.2
20260507032112 53 131 1.0 4.0 0.00 0.21 0.14 99 1015.3
20260507031614 53 127 1.0 7.0 0.00 0.21 0.14 99 1015.2
20260507025110 53 150 2.0 6.0 0.00 0.21 0.14 98 1015.3
20260507024610 54 165 2.0 9.0 0.00 0.21 0.14 98 1015.3
20260507024112 54 184 2.0 9.0 0.00 0.21 0.14 99 1015.3
20260507023612 54 179 2.0 9.0 0.00 0.21 0.14 99 1015.2
20260507022610 54 133 3.0 10.0 0.00 0.21 0.14 99 1015.2
20260507022107 54 201 2.0 8.0 0.00 0.21 0.14 99 1015.1
20260507021602 54 140 2.0 7.0 0.00 0.21 0.14 99 1015.2
20260507021102 54 143 3.0 9.0 0.00 0.21 0.14 98 1015.2
20260507020600 54 172 2.0 9.0 0.00 0.21 0.14 98 1015.2
20260507015602 54 99 2.0 7.0 0.00 0.21 0.14 98 1015.2
20260507015100 54 139 2.0 8.0 0.00 0.21 0.14 98 1015.2
20260507014613 54 151 3.0 8.0 0.00 0.21 0.14 99 1015.2
20260507014100 55 162 1.0 7.0 0.00 0.21 0.14 99 1015.3
20260507013602 55 224 1.0 4.0 0.00 0.21 0.14 99 1015.3
20260507013104 55 184 1.0 5.0 0.00 0.21 0.14 99 1015.3
20260507012602 55 210 2.0 7.0 0.00 0.21 0.14 98 1015.2
20260507012101 55 213 3.0 8.0 0.01 0.22 0.14 99 1015.2
20260507011100 55 193 1.0 5.0 0.03 0.23 0.14 98 1015.2
20260507010559 55 198 1.0 4.0 0.04 0.23 0.14 98 1015.3
20260507005600 55 191 1.0 4.0 0.06 0.23 0.14 98 1015.2
20260507005057 55 161 1.0 4.0 0.07 0.23 0.14 98 1015.3
20260507004056 55 217 3.0 7.0 0.09 0.23 0.14 98 1015.2
20260507003559 55 195 3.0 7.0 0.10 0.23 0.14 98 1015.1
20260507003055 55 223 3.0 9.0 0.11 0.23 0.14 98 1015.0
20260507002552 55 221 3.0 10.0 0.11 0.23 0.14 98 1015.0
20260507002054 55 256 3.0 10.0 0.10 0.22 0.13 98 1014.9
20260507001559 55 165 3.0 9.0 0.09 0.20 0.13 98 1014.9
20260506235547 55 171 2.0 6.0 0.07 0.17 0.08 98 1015.1
20260506235039 55 269 2.0 7.0 0.06 0.15 0.06 98 1015.2
20260506233536 55 136 1.0 5.0 0.03 0.13 0.04 98 1015.2
20260506233035 55 127 3.0 8.0 0.02 0.12 0.03 98 1015.2
20260506231536 55 146 2.0 7.0 0.03 0.12 0.03 98 1015.3
20260506231034 55 141 2.0 8.0 0.02 0.11 0.02 98 1015.2
20260506230533 55 131 3.0 8.0 0.02 0.10 0.02 98 1015.2
20260506230029 55 131 2.0 5.0 0.01 0.09 0.01 98 1015.2
20260506225030 55 146 1.0 6.0 0.01 0.09 0.01 98 1015.3
20260506223529 55 180 3.0 11.0 0.01 0.09 0.01 98 1015.4
20260506222529 55 141 3.0 8.0 0.00 0.09 0.00 98 1015.4
20260506222028 55 158 4.0 13.0 0.00 0.09 0.00 98 1015.5
20260506221528 55 140 5.0 13.0 0.00 0.09 0.00 98 1015.6
20260506221027 55 171 5.0 12.0 0.00 0.09 0.00 98 1015.5
20260506220028 56 183 3.0 12.0 0.00 0.09 0.00 98 1015.4
20260506215530 56 141 4.0 10.0 0.00 0.09 0.09 98 1015.5
20260506215028 56 125 4.0 10.0 0.00 0.09 0.09 98 1015.5
20260506214534 56 224 3.0 9.0 0.00 0.09 0.09 98 1015.6
20260506214029 56 124 4.0 9.0 0.00 0.09 0.09 98 1015.5
20260506213028 56 207 4.0 12.0 0.00 0.09 0.09 98 1015.5
20260506212527 56 211 4.0 10.0 0.00 0.09 0.09 98 1015.5
20260506212029 56 152 5.0 12.0 0.00 0.09 0.09 98 1015.4
20260506211028 56 238 4.0 11.0 0.00 0.09 0.09 98 1015.6
20260506210528 56 213 3.0 10.0 0.00 0.09 0.09 98 1015.6
20260506210028 56 191 4.0 11.0 0.00 0.09 0.09 98 1015.7
20260506205529 56 231 4.0 11.0 0.00 0.09 0.09 98 1015.7
20260506204528 56 184 4.0 12.0 0.00 0.09 0.09 98 1015.7
20260506204028 56 186 3.0 12.0 0.00 0.09 0.09 98 1015.4
20260506203530 56 139 2.0 10.0 0.00 0.09 0.09 98 1015.5
20260506201528 56 160 4.0 14.0 0.00 0.09 0.09 98 1015.4
20260506201025 56 217 3.0 14.0 0.00 0.09 0.09 98 1015.5
20260506200524 56 157 3.0 11.0 0.00 0.09 0.09 98 1015.4
20260506200024 56 110 3.0 11.0 0.02 0.09 0.09 98 1015.3
20260506195524 56 143 3.0 13.0 0.02 0.09 0.09 98 1015.2
20260506195026 56 195 3.0 13.0 0.02 0.09 0.09 98 1015.2
20260506194528 56 174 3.0 8.0 0.02 0.09 0.09 98 1015.2
20260506194024 56 218 3.0 9.0 0.02 0.09 0.09 98 1015.2
20260506193525 56 148 3.0 9.0 0.02 0.09 0.09 98 1015.1
20260506193025 56 217 3.0 10.0 0.02 0.09 0.09 98 1015.1
20260506192023 56 143 3.0 11.0 0.02 0.09 0.09 98 1015.0
20260506191522 56 176 3.0 11.0 0.02 0.09 0.09 98 1014.9
20260506191027 56 213 3.0 10.0 0.02 0.09 0.09 97 1014.8
20260506190525 56 199 3.0 11.0 0.02 0.09 0.09 97 1014.8
20260506190022 56 217 3.0 14.0 0.00 0.07 0.07 97 1014.7
20260506185522 56 218 3.0 14.0 0.00 0.07 0.07 97 1014.7
20260506185020 56 187 2.0 8.0 0.00 0.07 0.07 97 1014.6
20260506184016 56 192 2.0 7.0 0.00 0.07 0.07 97 1014.6
20260506183515 57 233 2.0 7.0 0.00 0.07 0.07 96 1014.6
20260506183015 57 211 2.0 9.0 0.00 0.07 0.07 96 1014.6
20260506182514 57 223 3.0 9.0 0.00 0.07 0.07 96 1014.6
20260506182013 57 214 3.0 10.0 0.00 0.07 0.07 96 1014.5
20260506181012 57 273 3.0 10.0 0.00 0.07 0.07 96 1014.6
20260506180515 57 225 2.0 7.0 0.00 0.07 0.07 95 1014.5
20260506180012 57 195 2.0 7.0 0.00 0.07 0.07 95 1014.5
20260506175008 57 157 2.0 8.0 0.00 0.07 0.07 95 1014.6
20260506174507 57 139 2.0 7.0 0.00 0.07 0.07 95 1014.5
20260506173503 57 115 3.0 13.0 0.00 0.07 0.07 94 1014.6
20260506172504 57 159 3.0 8.0 0.00 0.07 0.07 94 1014.5
20260506172005 57 142 3.0 10.0 0.00 0.07 0.07 94 1014.5
20260506171501 57 236 3.0 11.0 0.00 0.07 0.07 94 1014.4
20260506171004 57 146 4.0 11.0 0.00 0.07 0.07 95 1014.4
20260506170505 57 212 5.0 13.0 0.00 0.07 0.07 95 1014.4
20260506170000 57 92 4.0 17.0 0.00 0.07 0.07 95 1014.5
20260506165503 57 250 4.0 17.0 0.00 0.07 0.07 94 1014.5
20260506165001 57 193 4.0 11.0 0.00 0.07 0.07 94 1014.5
20260506164503 57 79 4.0 14.0 0.00 0.07 0.07 94 1014.5
20260506163501 57 152 3.0 13.0 0.00 0.07 0.07 94 1014.5
20260506161951 57 180 4.0 12.0 0.00 0.07 0.07 95 1014.5
20260506160950 57 223 5.0 12.0 0.00 0.07 0.07 95 1014.5
20260506160449 57 110 5.0 14.0 0.00 0.07 0.07 95 1014.4